Time,TemperatureF,DewpointF,PressureIn,WindDirection,WindDirectionDegrees,WindSpeedMPH,WindSpeedGustMPH,Humidity,HourlyPrecipIn,Conditions,Clouds,dailyrainin,SoftwareType,DateUTC
2013-03-08 00:00:00,33.4,32.0,30.06,NW,315,13.8,18.4,94,0.00,,,0.01,Rainwise IP-100,2013-03-08 05:00:00,
2013-03-08 00:05:00,33.3,32.0,30.05,NNW,337,11.9,18.9,94,0.00,,,0.00,Rainwise IP-100,2013-03-08 05:05:00,
2013-03-08 00:10:00,33.3,32.0,30.05,NNW,337,13.5,18.4,94,0.00,,,0.00,Rainwise IP-100,2013-03-08 05:10:00,
2013-03-08 00:15:00,33.3,32.0,30.05,NNW,337,11.9,15.2,94,0.00,,,0.00,Rainwise IP-100,2013-03-08 05:15:00,
2013-03-08 00:20:00,33.2,32.0,30.04,NW,315,18.7,19.4,94,0.00,,,0.00,Rainwise IP-100,2013-03-08 05:20:00,
2013-03-08 00:25:00,33.2,32.0,30.05,NNW,337,11.2,20.3,94,0.00,,,0.00,Rainwise IP-100,2013-03-08 05:25:00,
2013-03-08 00:30:00,33.2,32.0,30.05,NNW,337,13.3,20.1,94,0.00,,,0.00,Rainwise IP-100,2013-03-08 05:30:00,
2013-03-08 00:32:00,33.1,32.0,30.05,NW,315,16.1,21.2,94,0.00,,,0.00,Rainwise IP-100,2013-03-08 05:32:00,
2013-03-08 00:37:00,33.0,32.0,30.06,NNW,337,14.2,16.3,94,0.00,,,0.00,Rainwise IP-100,2013-03-08 05:37:00,
2013-03-08 00:42:00,33.0,32.0,30.05,NNW,337,14.5,20.1,95,0.00,,,0.00,Rainwise IP-100,2013-03-08 05:42:00,
2013-03-08 00:47:00,32.9,32.0,30.05,NW,315,12.1,16.6,95,0.00,,,0.00,Rainwise IP-100,2013-03-08 05:47:00,
2013-03-08 00:52:00,32.9,32.0,30.05,NNW,337,13.3,18.9,95,0.00,,,0.00,Rainwise IP-100,2013-03-08 05:52:00,
2013-03-08 00:57:00,32.9,32.0,30.05,NNW,337,10.0,17.7,95,0.00,,,0.00,Rainwise IP-100,2013-03-08 05:57:00,
2013-03-08 01:03:00,32.8,32.0,30.06,NW,315,12.8,16.8,95,0.00,,,0.00,Rainwise IP-100,2013-03-08 06:03:00,
2013-03-08 01:06:00,32.8,32.0,30.05,NNW,337,9.6,17.0,95,0.00,,,0.00,Rainwise IP-100,2013-03-08 06:06:00,
2013-03-08 01:11:00,32.7,32.0,30.05,NNW,337,13.8,21.0,95,0.00,,,0.00,Rainwise IP-100,2013-03-08 06:11:00,
2013-03-08 01:16:00,32.7,32.0,30.05,NNW,337,13.8,20.8,95,0.00,,,0.00,Rainwise IP-100,2013-03-08 06:16:00,
2013-03-08 01:21:00,32.6,32.0,30.06,NNW,337,14.7,19.8,95,0.00,,,0.00,Rainwise IP-100,2013-03-08 06:21:00,
2013-03-08 01:26:00,32.5,32.0,30.05,NNW,337,13.3,18.4,96,0.00,,,0.00,Rainwise IP-100,2013-03-08 06:26:00,
2013-03-08 01:32:00,32.5,32.0,30.06,NNW,337,14.5,19.8,96,0.00,,,0.00,Rainwise IP-100,2013-03-08 06:32:00,
2013-03-08 01:37:00,32.3,31.0,30.05,NNW,337,12.6,21.9,96,0.00,,,0.00,Rainwise IP-100,2013-03-08 06:37:00,
2013-03-08 01:42:00,32.2,31.0,30.05,NNW,337,19.8,23.1,96,0.00,,,0.00,Rainwise IP-100,2013-03-08 06:42:00,
2013-03-08 01:47:00,32.2,31.0,30.04,NNW,337,9.8,21.5,96,0.00,,,0.00,Rainwise IP-100,2013-03-08 06:47:00,
2013-03-08 01:52:00,32.1,31.0,30.03,NNW,337,16.8,22.9,97,0.00,,,0.00,Rainwise IP-100,2013-03-08 06:52:00,
2013-03-08 01:57:00,32.2,31.0,30.04,NNW,337,12.4,20.3,97,0.00,,,0.00,Rainwise IP-100,2013-03-08 06:57:00,
2013-03-08 02:02:00,32.2,31.0,30.04,NNW,337,9.8,18.9,97,0.00,,,0.00,Rainwise IP-100,2013-03-08 07:02:00,
2013-03-08 02:07:00,32.2,31.0,30.04,NNW,337,13.3,19.6,97,0.00,,,0.00,Rainwise IP-100,2013-03-08 07:07:00,
2013-03-08 02:11:00,32.2,31.0,30.03,NNW,337,15.9,19.6,97,0.00,,,0.00,Rainwise IP-100,2013-03-08 07:11:00,
2013-03-08 02:12:00,32.2,31.0,30.03,NNW,337,15.2,19.6,97,0.00,,,0.00,Rainwise IP-100,2013-03-08 07:12:00,
2013-03-08 02:16:00,32.2,31.0,30.03,NNW,337,17.7,20.5,97,0.00,,,0.00,Rainwise IP-100,2013-03-08 07:16:00,
2013-03-08 02:21:00,32.1,31.0,30.02,NNW,337,15.2,19.8,97,0.00,,,0.00,Rainwise IP-100,2013-03-08 07:21:00,
2013-03-08 02:26:00,32.2,31.0,30.02,NNW,337,13.1,22.2,97,0.00,,,0.00,Rainwise IP-100,2013-03-08 07:26:00,
2013-03-08 02:32:00,32.1,31.0,30.02,NNW,337,11.9,22.6,97,0.00,,,0.00,Rainwise IP-100,2013-03-08 07:32:00,
2013-03-08 02:37:00,32.1,31.0,30.02,NNW,337,13.8,22.2,97,0.00,,,0.00,Rainwise IP-100,2013-03-08 07:37:00,
2013-03-08 02:42:00,32.1,31.0,30.02,NNW,337,19.6,23.3,97,0.00,,,0.00,Rainwise IP-100,2013-03-08 07:42:00,
2013-03-08 02:47:00,32.0,31.0,30.02,NNW,337,17.3,22.2,97,0.00,,,0.00,Rainwise IP-100,2013-03-08 07:47:00,
2013-03-08 02:52:00,32.0,31.0,30.02,NNW,337,10.7,22.4,97,0.00,,,0.00,Rainwise IP-100,2013-03-08 07:52:00,
2013-03-08 02:57:00,32.0,31.0,30.02,NNW,337,12.4,21.2,97,0.00,,,0.00,Rainwise IP-100,2013-03-08 07:57:00,
2013-03-08 03:02:00,32.0,31.0,30.01,NNW,337,12.6,19.4,97,0.00,,,0.00,Rainwise IP-100,2013-03-08 08:02:00,
2013-03-08 03:07:00,31.9,31.0,30.01,NNW,337,15.9,19.8,97,0.00,,,0.00,Rainwise IP-100,2013-03-08 08:07:00,
2013-03-08 03:13:00,31.9,31.0,30.01,NNW,337,11.9,22.4,97,0.00,,,0.00,Rainwise IP-100,2013-03-08 08:13:00,
2013-03-08 03:18:00,31.9,31.0,30.01,NNW,337,19.1,21.9,97,0.00,,,0.00,Rainwise IP-100,2013-03-08 08:18:00,
2013-03-08 03:23:00,31.9,31.0,30.01,NNW,337,13.8,20.1,97,0.00,,,0.00,Rainwise IP-100,2013-03-08 08:23:00,
2013-03-08 03:28:00,31.8,31.0,30.01,NNW,337,14.7,21.5,97,0.00,,,0.00,Rainwise IP-100,2013-03-08 08:28:00,
2013-03-08 03:33:00,31.9,31.0,30.01,NNW,337,14.0,20.8,97,0.00,,,0.00,Rainwise IP-100,2013-03-08 08:33:00,
2013-03-08 03:38:00,31.8,31.0,30.01,NNW,337,16.8,21.9,97,0.00,,,0.00,Rainwise IP-100,2013-03-08 08:38:00,
2013-03-08 03:43:00,31.8,31.0,30.01,NNW,337,15.2,23.1,97,0.00,,,0.00,Rainwise IP-100,2013-03-08 08:43:00,
2013-03-08 03:48:00,31.9,31.0,30.00,NNW,337,16.1,21.9,97,0.00,,,0.00,Rainwise IP-100,2013-03-08 08:48:00,
2013-03-08 03:54:00,31.9,31.0,30.00,NNW,337,19.1,24.0,97,0.00,,,0.00,Rainwise IP-100,2013-03-08 08:54:00,
2013-03-08 03:59:00,31.8,31.0,30.01,NNW,337,10.7,21.2,97,0.00,,,0.00,Rainwise IP-100,2013-03-08 08:59:00,
2013-03-08 04:04:00,31.8,31.0,30.01,NNW,337,14.9,26.6,97,0.00,,,0.00,Rainwise IP-100,2013-03-08 09:04:00,
2013-03-08 04:09:00,31.8,31.0,30.01,NNW,337,14.7,19.6,97,0.00,,,0.00,Rainwise IP-100,2013-03-08 09:09:00,
2013-03-08 04:14:00,31.7,31.0,30.00,NNW,337,18.7,18.7,97,0.00,,,0.00,Rainwise IP-100,2013-03-08 09:14:00,
2013-03-08 04:19:00,31.6,31.0,30.01,NNW,337,10.5,20.3,97,0.00,,,0.00,Rainwise IP-100,2013-03-08 09:19:00,
2013-03-08 04:24:00,31.6,31.0,30.01,NNW,337,11.7,18.2,97,0.00,,,0.00,Rainwise IP-100,2013-03-08 09:24:00,
2013-03-08 04:30:00,31.7,31.0,30.01,NNW,337,10.3,17.7,97,0.00,,,0.00,Rainwise IP-100,2013-03-08 09:30:00,
2013-03-08 04:35:00,31.7,31.0,30.00,NNW,337,13.1,14.7,97,0.00,,,0.00,Rainwise IP-100,2013-03-08 09:35:00,
2013-03-08 04:40:00,31.6,32.0,30.01,NNW,337,12.4,15.4,98,0.00,,,0.00,Rainwise IP-100,2013-03-08 09:40:00,
2013-03-08 04:45:00,31.6,32.0,30.01,NNW,337,17.7,20.1,98,0.00,,,0.00,Rainwise IP-100,2013-03-08 09:45:00,
2013-03-08 04:46:00,31.6,32.0,30.01,NNW,337,12.8,20.1,98,0.00,,,0.00,Rainwise IP-100,2013-03-08 09:46:00,
2013-03-08 04:51:00,31.6,32.0,30.01,NNW,337,12.8,18.0,98,0.00,,,0.00,Rainwise IP-100,2013-03-08 09:51:00,
2013-03-08 04:56:00,31.6,32.0,30.00,NNW,337,13.5,20.3,98,0.00,,,0.00,Rainwise IP-100,2013-03-08 09:56:00,
2013-03-08 05:01:00,31.6,32.0,30.01,NNW,337,14.9,19.4,98,0.00,,,0.00,Rainwise IP-100,2013-03-08 10:01:00,
2013-03-08 05:07:00,31.6,32.0,30.01,NNW,337,11.9,18.4,98,0.00,,,0.00,Rainwise IP-100,2013-03-08 10:07:00,
2013-03-08 05:12:00,31.6,31.0,30.01,NNW,337,15.2,18.2,97,0.00,,,0.00,Rainwise IP-100,2013-03-08 10:12:00,
2013-03-08 05:17:00,31.5,31.0,30.01,NNW,337,12.4,19.8,97,0.00,,,0.00,Rainwise IP-100,2013-03-08 10:17:00,
2013-03-08 05:22:00,31.5,31.0,30.01,NNW,337,11.7,17.7,97,0.00,,,0.00,Rainwise IP-100,2013-03-08 10:22:00,
2013-03-08 05:27:00,31.5,31.0,30.01,NNW,337,11.4,17.5,97,0.00,,,0.00,Rainwise IP-100,2013-03-08 10:27:00,
2013-03-08 05:32:00,31.4,29.0,30.01,NNW,337,12.4,18.2,97,0.00,,,0.00,Rainwise IP-100,2013-03-08 10:32:00,
2013-03-08 05:37:00,31.3,29.0,30.01,NNW,337,17.5,22.6,97,0.00,,,0.00,Rainwise IP-100,2013-03-08 10:37:00,
2013-03-08 05:43:00,31.3,29.0,30.01,NNW,337,16.8,20.3,97,0.00,,,0.00,Rainwise IP-100,2013-03-08 10:43:00,
2013-03-08 05:48:00,31.2,29.0,30.00,NNW,337,13.5,19.8,97,0.00,,,0.00,Rainwise IP-100,2013-03-08 10:48:00,
2013-03-08 05:53:00,31.1,29.0,30.00,NNW,337,7.9,20.8,97,0.00,,,0.00,Rainwise IP-100,2013-03-08 10:53:00,
2013-03-08 05:58:00,31.1,29.0,30.01,NNW,337,11.4,21.2,97,0.00,,,0.00,Rainwise IP-100,2013-03-08 10:58:00,
2013-03-08 06:03:00,31.2,29.0,30.01,NNW,337,17.5,21.7,97,0.00,,,0.00,Rainwise IP-100,2013-03-08 11:03:00,
2013-03-08 06:08:00,31.1,29.0,30.00,NNW,337,16.8,18.4,97,0.00,,,0.00,Rainwise IP-100,2013-03-08 11:08:00,
2013-03-08 06:13:00,31.1,29.0,30.00,NNW,337,19.4,21.7,97,0.00,,,0.00,Rainwise IP-100,2013-03-08 11:13:00,
2013-03-08 06:18:00,31.1,29.0,30.01,NNW,337,13.5,21.7,97,0.00,,,0.00,Rainwise IP-100,2013-03-08 11:18:00,
2013-03-08 06:24:00,31.1,29.0,29.99,NNW,337,19.4,21.5,97,0.00,,,0.00,Rainwise IP-100,2013-03-08 11:24:00,
2013-03-08 06:29:00,31.2,29.0,30.01,NNW,337,15.2,20.1,97,0.00,,,0.00,Rainwise IP-100,2013-03-08 11:29:00,
2013-03-08 06:34:00,31.2,29.0,30.00,NNW,337,16.1,21.9,96,0.00,,,0.00,Rainwise IP-100,2013-03-08 11:34:00,
2013-03-08 06:39:00,31.2,29.0,30.00,NNW,337,21.7,27.7,96,0.00,,,0.00,Rainwise IP-100,2013-03-08 11:39:00,
2013-03-08 06:44:00,31.2,29.0,30.00,NNW,337,15.2,22.9,96,0.00,,,0.00,Rainwise IP-100,2013-03-08 11:44:00,
2013-03-08 06:49:00,31.2,29.0,30.01,NNW,337,13.1,25.2,96,0.00,,,0.00,Rainwise IP-100,2013-03-08 11:49:00,
2013-03-08 06:54:00,31.2,29.0,30.01,NNW,337,12.1,21.9,96,0.00,,,0.00,Rainwise IP-100,2013-03-08 11:54:00,
2013-03-08 07:00:00,31.2,29.0,30.00,NNW,337,19.1,21.9,96,0.00,,,0.00,Rainwise IP-100,2013-03-08 12:00:00,
2013-03-08 07:05:00,31.2,29.0,30.00,NNW,337,18.4,20.1,96,0.00,,,0.00,Rainwise IP-100,2013-03-08 12:05:00,
2013-03-08 07:10:00,31.2,29.0,30.00,NNW,337,17.5,25.2,97,0.00,,,0.00,Rainwise IP-100,2013-03-08 12:10:00,
2013-03-08 07:15:00,31.2,29.0,29.99,NNW,337,15.6,24.5,97,0.00,,,0.00,Rainwise IP-100,2013-03-08 12:15:00,
2013-03-08 07:20:00,31.2,29.0,30.00,NNW,337,22.4,28.4,96,0.00,,,0.00,Rainwise IP-100,2013-03-08 12:20:00,
2013-03-08 07:25:00,31.2,29.0,30.00,NNW,337,20.3,24.7,96,0.00,,,0.00,Rainwise IP-100,2013-03-08 12:25:00,
2013-03-08 07:30:00,31.2,29.0,30.00,NNW,337,6.3,29.1,96,0.00,,,0.00,Rainwise IP-100,2013-03-08 12:30:00,
2013-03-08 07:35:00,31.2,29.0,30.00,NNW,337,24.9,24.9,96,0.00,,,0.00,Rainwise IP-100,2013-03-08 12:35:00,
2013-03-08 07:41:00,31.2,29.0,29.99,NNW,337,21.5,27.7,96,0.00,,,0.00,Rainwise IP-100,2013-03-08 12:41:00,
2013-03-08 07:46:00,31.3,29.0,30.00,NNW,337,15.9,26.1,96,0.00,,,0.00,Rainwise IP-100,2013-03-08 12:46:00,
2013-03-08 07:51:00,31.3,29.0,30.00,NNW,337,19.6,30.8,96,0.00,,,0.00,Rainwise IP-100,2013-03-08 12:51:00,
2013-03-08 07:56:00,31.3,29.0,30.01,NNW,337,18.4,27.0,96,0.00,,,0.00,Rainwise IP-100,2013-03-08 12:56:00,
2013-03-08 08:01:00,31.4,29.0,30.01,NNW,337,17.5,23.8,95,0.00,,,0.00,Rainwise IP-100,2013-03-08 13:01:00,
2013-03-08 08:06:00,31.5,31.0,30.02,NNW,337,14.5,30.3,95,0.00,,,0.00,Rainwise IP-100,2013-03-08 13:06:00,
2013-03-08 08:11:00,31.5,31.0,30.01,NNW,337,17.7,27.7,95,0.00,,,0.00,Rainwise IP-100,2013-03-08 13:11:00,
2013-03-08 08:17:00,31.5,31.0,30.00,NNW,337,19.1,27.0,95,0.00,,,0.00,Rainwise IP-100,2013-03-08 13:17:00,
2013-03-08 08:22:00,31.6,31.0,30.01,NNW,337,20.3,24.5,95,0.00,,,0.00,Rainwise IP-100,2013-03-08 13:22:00,
2013-03-08 08:27:00,31.6,31.0,30.00,NNW,337,20.8,26.6,95,0.00,,,0.00,Rainwise IP-100,2013-03-08 13:27:00,
2013-03-08 08:32:00,31.7,31.0,30.00,NNW,337,17.5,30.5,95,0.00,,,0.00,Rainwise IP-100,2013-03-08 13:32:00,
2013-03-08 08:37:00,31.7,31.0,30.01,NNW,337,19.4,25.9,95,0.00,,,0.00,Rainwise IP-100,2013-03-08 13:37:00,
2013-03-08 08:42:00,31.6,31.0,30.00,NNW,337,24.0,24.5,95,0.00,,,0.00,Rainwise IP-100,2013-03-08 13:42:00,
2013-03-08 08:47:00,31.7,31.0,30.02,NNW,337,21.7,25.4,95,0.00,,,0.00,Rainwise IP-100,2013-03-08 13:47:00,
2013-03-08 08:52:00,31.8,31.0,30.02,NNW,337,14.9,24.5,94,0.00,,,0.00,Rainwise IP-100,2013-03-08 13:52:00,
2013-03-08 08:58:00,31.9,31.0,30.01,NNW,337,16.8,26.1,94,0.00,,,0.00,Rainwise IP-100,2013-03-08 13:58:00,
2013-03-08 09:03:00,32.0,31.0,30.01,NNW,337,17.3,27.5,94,0.00,,,0.00,Rainwise IP-100,2013-03-08 14:03:00,
2013-03-08 09:08:00,32.0,31.0,30.00,NNW,337,17.7,33.1,94,0.00,,,0.00,Rainwise IP-100,2013-03-08 14:08:00,
2013-03-08 09:13:00,32.0,31.0,30.02,NNW,337,17.0,23.6,94,0.00,,,0.00,Rainwise IP-100,2013-03-08 14:13:00,
2013-03-08 09:18:00,32.0,31.0,30.02,NNW,337,16.6,24.7,94,0.00,,,0.00,Rainwise IP-100,2013-03-08 14:18:00,
2013-03-08 09:23:00,32.0,31.0,30.01,NNW,337,12.4,29.1,93,0.00,,,0.00,Rainwise IP-100,2013-03-08 14:23:00,
2013-03-08 09:28:00,32.0,31.0,30.01,NNW,337,17.5,25.9,93,0.00,,,0.00,Rainwise IP-100,2013-03-08 14:28:00,
2013-03-08 09:34:00,32.0,31.0,30.02,NNW,337,23.1,28.2,93,0.00,,,0.00,Rainwise IP-100,2013-03-08 14:34:00,
2013-03-08 09:39:00,32.1,31.0,30.01,NNW,337,21.5,25.9,93,0.00,,,0.00,Rainwise IP-100,2013-03-08 14:39:00,
2013-03-08 09:44:00,32.2,31.0,30.02,NNW,337,15.4,25.2,93,0.00,,,0.00,Rainwise IP-100,2013-03-08 14:44:00,
2013-03-08 09:49:00,32.2,31.0,30.02,NNW,337,14.9,24.9,93,0.00,,,0.00,Rainwise IP-100,2013-03-08 14:49:00,
2013-03-08 09:54:00,32.3,31.0,30.01,NNW,337,18.4,27.7,92,0.00,,,0.00,Rainwise IP-100,2013-03-08 14:54:00,
2013-03-08 09:59:00,32.4,31.0,30.02,NNW,337,19.6,25.6,92,0.00,,,0.00,Rainwise IP-100,2013-03-08 14:59:00,
2013-03-08 10:04:00,32.5,31.0,30.02,NNW,337,20.8,28.2,92,0.00,,,0.00,Rainwise IP-100,2013-03-08 15:04:00,
2013-03-08 10:09:00,32.5,31.0,30.00,NNW,337,23.3,31.2,92,0.00,,,0.00,Rainwise IP-100,2013-03-08 15:09:00,
2013-03-08 10:15:00,32.6,31.0,30.03,NNW,337,17.5,30.3,91,0.00,,,0.00,Rainwise IP-100,2013-03-08 15:15:00,
2013-03-08 10:20:00,32.6,31.0,30.03,NNW,337,21.0,24.0,91,0.00,,,0.00,Rainwise IP-100,2013-03-08 15:20:00,
2013-03-08 10:25:00,32.6,31.0,30.03,NNW,337,17.3,21.7,92,0.00,,,0.00,Rainwise IP-100,2013-03-08 15:25:00,
2013-03-08 10:30:00,32.7,31.0,30.03,NNW,337,15.4,23.1,91,0.00,,,0.00,Rainwise IP-100,2013-03-08 15:30:00,
2013-03-08 10:35:00,32.9,31.0,30.02,NNW,337,14.0,24.2,91,0.00,,,0.00,Rainwise IP-100,2013-03-08 15:35:00,
2013-03-08 10:40:00,33.0,31.0,30.02,NNW,337,21.2,27.3,90,0.06,,,0.01,Rainwise IP-100,2013-03-08 15:40:00,
2013-03-08 10:45:00,33.1,31.0,30.03,NNW,337,12.8,24.5,90,0.06,,,0.01,Rainwise IP-100,2013-03-08 15:45:00,
2013-03-08 10:51:00,33.2,31.0,30.02,NNW,337,20.5,25.6,90,0.00,,,0.01,Rainwise IP-100,2013-03-08 15:51:00,
2013-03-08 10:56:00,33.4,31.0,30.03,North,360,4.9,27.0,90,0.00,,,0.01,Rainwise IP-100,2013-03-08 15:56:00,
2013-03-08 11:01:00,33.5,32.0,30.03,NNW,337,11.0,22.6,89,0.00,,,0.01,Rainwise IP-100,2013-03-08 16:01:00,
2013-03-08 11:06:00,33.6,32.0,30.03,NNW,337,10.7,27.7,89,0.00,,,0.01,Rainwise IP-100,2013-03-08 16:06:00,
2013-03-08 11:11:00,33.6,32.0,30.03,NNW,337,13.3,22.4,89,0.00,,,0.01,Rainwise IP-100,2013-03-08 16:11:00,
2013-03-08 11:16:00,33.6,32.0,30.04,NNW,337,15.4,26.6,89,0.00,,,0.01,Rainwise IP-100,2013-03-08 16:16:00,
2013-03-08 11:21:00,33.7,32.0,30.04,NNW,337,11.0,21.0,89,0.00,,,0.01,Rainwise IP-100,2013-03-08 16:21:00,
2013-03-08 11:26:00,33.7,32.0,30.04,NNW,337,12.6,28.9,89,0.00,,,0.01,Rainwise IP-100,2013-03-08 16:26:00,
2013-03-08 11:32:00,33.7,32.0,30.04,NNW,337,16.1,23.1,89,0.00,,,0.01,Rainwise IP-100,2013-03-08 16:32:00,
2013-03-08 11:37:00,33.7,32.0,30.04,NNW,337,15.6,20.3,89,0.00,,,0.01,Rainwise IP-100,2013-03-08 16:37:00,
2013-03-08 11:42:00,33.7,32.0,30.04,NW,315,13.8,23.1,89,0.00,,,0.01,Rainwise IP-100,2013-03-08 16:42:00,
2013-03-08 11:47:00,33.8,32.0,30.04,NNW,337,18.9,19.1,89,0.00,,,0.01,Rainwise IP-100,2013-03-08 16:47:00,
2013-03-08 11:52:00,33.9,32.0,30.04,NNW,337,15.9,22.4,89,0.00,,,0.01,Rainwise IP-100,2013-03-08 16:52:00,
2013-03-08 11:57:00,33.9,32.0,30.04,NNW,337,12.4,23.3,88,0.00,,,0.01,Rainwise IP-100,2013-03-08 16:57:00,
2013-03-08 12:02:00,34.1,32.0,30.04,NNW,337,17.5,25.6,88,0.00,,,0.01,Rainwise IP-100,2013-03-08 17:02:00,
2013-03-08 12:08:00,34.2,31.0,30.04,NNW,337,12.8,23.1,87,0.00,,,0.01,Rainwise IP-100,2013-03-08 17:08:00,
2013-03-08 12:13:00,34.3,31.0,30.03,NNW,337,15.2,25.4,87,0.00,,,0.01,Rainwise IP-100,2013-03-08 17:13:00,
2013-03-08 12:18:00,34.3,31.0,30.03,NNW,337,27.0,27.0,87,0.00,,,0.01,Rainwise IP-100,2013-03-08 17:18:00,
2013-03-08 12:23:00,34.3,31.0,30.03,NNW,337,23.8,27.0,87,0.00,,,0.01,Rainwise IP-100,2013-03-08 17:23:00,
2013-03-08 12:28:00,34.3,31.0,30.04,NW,315,8.9,25.9,87,0.00,,,0.01,Rainwise IP-100,2013-03-08 17:28:00,
2013-03-08 12:33:00,34.4,32.0,30.03,NNW,337,15.4,23.1,88,0.00,,,0.01,Rainwise IP-100,2013-03-08 17:33:00,
2013-03-08 12:38:00,34.4,32.0,30.02,NNW,337,20.5,21.0,88,0.00,,,0.01,Rainwise IP-100,2013-03-08 17:38:00,
2013-03-08 12:43:00,34.4,31.0,30.02,NNW,337,18.4,27.0,87,0.00,,,0.01,Rainwise IP-100,2013-03-08 17:43:00,
2013-03-08 12:49:00,34.6,31.0,30.04,NNW,337,13.1,25.4,87,0.00,,,0.01,Rainwise IP-100,2013-03-08 17:49:00,
2013-03-08 12:54:00,34.7,31.0,30.04,NNW,337,11.9,21.2,87,0.00,,,0.01,Rainwise IP-100,2013-03-08 17:54:00,
2013-03-08 12:59:00,34.8,31.0,30.03,NNW,337,14.5,21.0,87,0.00,,,0.01,Rainwise IP-100,2013-03-08 17:59:00,
2013-03-08 13:04:00,35.0,31.0,30.02,NNW,337,15.4,24.2,86,0.00,,,0.01,Rainwise IP-100,2013-03-08 18:04:00,
2013-03-08 13:09:00,35.2,31.0,30.03,NNW,337,12.4,20.1,86,0.00,,,0.01,Rainwise IP-100,2013-03-08 18:09:00,
2013-03-08 13:14:00,35.6,32.0,30.03,NNW,337,11.4,19.6,86,0.00,,,0.01,Rainwise IP-100,2013-03-08 18:14:00,
2013-03-08 13:19:00,35.9,32.0,30.04,NNW,337,14.0,17.5,85,0.00,,,0.01,Rainwise IP-100,2013-03-08 18:19:00,
2013-03-08 13:20:00,35.9,32.0,30.04,NNW,337,10.0,15.2,85,0.00,,,0.01,Rainwise IP-100,2013-03-08 18:20:00,
2013-03-08 13:23:00,36.0,32.0,30.04,NNW,337,15.9,16.8,85,0.00,,,0.01,Rainwise IP-100,2013-03-08 18:23:00,
2013-03-08 13:28:00,36.1,32.0,30.04,NNW,337,13.5,21.0,85,0.00,,,0.01,Rainwise IP-100,2013-03-08 18:28:00,
2013-03-08 13:30:00,36.0,32.0,30.04,NW,315,13.5,24.2,84,0.00,,,0.01,Rainwise IP-100,2013-03-08 18:30:00,
2013-03-08 13:31:00,36.0,32.0,30.04,NNW,337,20.8,24.2,84,0.00,,,0.01,Rainwise IP-100,2013-03-08 18:31:00,
2013-03-08 13:36:00,36.1,32.0,30.05,NNW,337,17.0,20.8,84,0.00,,,0.01,Rainwise IP-100,2013-03-08 18:36:00,
2013-03-08 13:41:00,36.2,32.0,30.05,NNW,337,11.4,18.9,85,0.00,,,0.01,Rainwise IP-100,2013-03-08 18:41:00,
2013-03-08 13:46:00,36.2,32.0,30.04,NNW,337,14.5,17.5,85,0.00,,,0.01,Rainwise IP-100,2013-03-08 18:46:00,
2013-03-08 13:49:00,36.2,32.0,30.05,NNW,337,13.3,20.3,85,0.00,,,0.01,Rainwise IP-100,2013-03-08 18:49:00,
2013-03-08 13:50:00,36.2,32.0,30.05,NNW,337,15.4,20.3,85,0.00,,,0.01,Rainwise IP-100,2013-03-08 18:50:00,
2013-03-08 13:55:00,36.1,32.0,30.04,NNW,337,13.1,17.0,85,0.00,,,0.01,Rainwise IP-100,2013-03-08 18:55:00,
2013-03-08 14:00:00,36.2,32.0,30.04,NNW,337,13.3,19.8,85,0.00,,,0.01,Rainwise IP-100,2013-03-08 19:00:00,
2013-03-08 14:05:00,36.4,32.0,30.04,NNW,337,9.8,18.4,85,0.00,,,0.01,Rainwise IP-100,2013-03-08 19:05:00,
2013-03-08 14:11:00,36.5,33.0,30.04,NW,315,8.6,18.4,85,0.00,,,0.01,Rainwise IP-100,2013-03-08 19:11:00,
2013-03-08 14:16:00,36.6,33.0,30.03,NNW,337,12.6,18.9,85,0.00,,,0.01,Rainwise IP-100,2013-03-08 19:16:00,
2013-03-08 14:21:00,36.7,33.0,30.04,NNW,337,9.8,17.3,85,0.00,,,0.01,Rainwise IP-100,2013-03-08 19:21:00,
2013-03-08 14:26:00,36.9,33.0,30.04,NNW,337,11.4,15.2,85,0.00,,,0.01,Rainwise IP-100,2013-03-08 19:26:00,
2013-03-08 14:31:00,37.2,32.0,30.04,NNW,337,10.5,17.0,84,0.00,,,0.01,Rainwise IP-100,2013-03-08 19:31:00,
2013-03-08 14:36:00,37.3,32.0,30.05,North,360,10.7,17.7,83,0.00,,,0.01,Rainwise IP-100,2013-03-08 19:36:00,
2013-03-08 14:41:00,37.3,32.0,30.04,NNW,337,11.0,20.3,83,0.00,,,0.01,Rainwise IP-100,2013-03-08 19:41:00,
2013-03-08 14:47:00,37.4,32.0,30.04,North,360,9.1,19.1,82,0.00,,,0.01,Rainwise IP-100,2013-03-08 19:47:00,
2013-03-08 14:52:00,37.6,33.0,30.04,NNW,337,13.5,20.1,81,0.00,,,0.01,Rainwise IP-100,2013-03-08 19:52:00,
2013-03-08 14:57:00,37.7,32.0,30.05,NNW,337,9.1,17.7,80,0.00,,,0.01,Rainwise IP-100,2013-03-08 19:57:00,
2013-03-08 15:02:00,37.7,32.0,30.05,NNW,337,15.4,18.2,79,0.00,,,0.01,Rainwise IP-100,2013-03-08 20:02:00,
2013-03-08 15:07:00,37.9,32.0,30.06,NNW,337,15.2,16.1,79,0.00,,,0.01,Rainwise IP-100,2013-03-08 20:07:00,
2013-03-08 15:12:00,38.1,32.0,30.05,NNW,337,10.0,20.8,79,0.00,,,0.01,Rainwise IP-100,2013-03-08 20:12:00,
2013-03-08 15:17:00,38.2,32.0,30.05,North,360,10.7,15.4,78,0.00,,,0.01,Rainwise IP-100,2013-03-08 20:17:00,
2013-03-08 15:19:00,38.2,32.0,30.05,NNW,337,10.3,15.9,78,0.00,,,0.01,Rainwise IP-100,2013-03-08 20:19:00,
2013-03-08 15:23:00,38.2,32.0,30.06,NNW,337,10.0,15.9,78,0.00,,,0.01,Rainwise IP-100,2013-03-08 20:23:00,
2013-03-08 15:28:00,38.3,32.0,30.06,NNW,337,13.3,17.7,77,0.00,,,0.01,Rainwise IP-100,2013-03-08 20:28:00,
2013-03-08 15:33:00,38.5,32.0,30.06,NNE,22,8.9,14.5,77,0.00,,,0.01,Rainwise IP-100,2013-03-08 20:33:00,
2013-03-08 15:38:00,38.7,32.0,30.06,NNW,337,9.1,15.9,76,0.00,,,0.01,Rainwise IP-100,2013-03-08 20:38:00,
2013-03-08 15:43:00,39.0,32.0,30.06,NNW,337,8.9,15.9,76,0.00,,,0.01,Rainwise IP-100,2013-03-08 20:43:00,
2013-03-08 15:49:00,39.2,32.0,30.05,NNW,337,11.9,15.6,75,0.00,,,0.01,Rainwise IP-100,2013-03-08 20:49:00,
2013-03-08 15:54:00,39.2,32.0,30.06,NNW,337,7.2,21.0,75,0.00,,,0.01,Rainwise IP-100,2013-03-08 20:54:00,
2013-03-08 15:59:00,39.4,32.0,30.06,North,360,15.2,17.0,74,0.00,,,0.01,Rainwise IP-100,2013-03-08 20:59:00,
2013-03-08 16:04:00,39.7,33.0,30.06,NNE,22,13.5,18.2,74,0.00,,,0.01,Rainwise IP-100,2013-03-08 21:04:00,
2013-03-08 16:09:00,39.9,32.0,30.07,North,360,11.0,20.5,73,0.00,,,0.01,Rainwise IP-100,2013-03-08 21:09:00,
2013-03-08 16:14:00,39.9,32.0,30.06,North,360,12.4,20.5,72,0.00,,,0.01,Rainwise IP-100,2013-03-08 21:14:00,
2013-03-08 16:19:00,39.9,32.0,30.07,NNW,337,13.3,21.5,71,0.00,,,0.01,Rainwise IP-100,2013-03-08 21:19:00,
2013-03-08 16:24:00,39.9,32.0,30.07,NNW,337,11.7,20.3,71,0.00,,,0.01,Rainwise IP-100,2013-03-08 21:24:00,
2013-03-08 16:29:00,39.6,32.0,30.07,NNW,337,8.9,20.5,71,0.00,,,0.01,Rainwise IP-100,2013-03-08 21:29:00,
2013-03-08 16:34:00,39.5,32.0,30.06,NNW,337,14.7,21.7,71,0.00,,,0.01,Rainwise IP-100,2013-03-08 21:34:00,
2013-03-08 16:40:00,39.6,32.0,30.06,NW,315,19.1,22.9,70,0.00,,,0.01,Rainwise IP-100,2013-03-08 21:40:00,
2013-03-08 16:45:00,39.6,31.0,30.07,NNW,337,13.3,21.0,69,0.00,,,0.01,Rainwise IP-100,2013-03-08 21:45:00,
2013-03-08 16:50:00,39.7,31.0,30.08,NNW,337,20.8,20.8,69,0.00,,,0.01,Rainwise IP-100,2013-03-08 21:50:00,
2013-03-08 16:55:00,39.9,31.0,30.08,NNE,22,15.6,20.5,68,0.00,,,0.01,Rainwise IP-100,2013-03-08 21:55:00,
2013-03-08 17:00:00,40.1,31.0,30.09,NNW,337,9.6,18.2,66,0.00,,,0.01,Rainwise IP-100,2013-03-08 22:00:00,
2013-03-08 17:05:00,40.3,29.0,30.09,NNW,337,10.3,19.4,65,0.00,,,0.01,Rainwise IP-100,2013-03-08 22:05:00,
2013-03-08 17:10:00,40.4,29.0,30.09,North,360,9.3,14.7,65,0.00,,,0.01,Rainwise IP-100,2013-03-08 22:10:00,
2013-03-08 17:15:00,40.6,31.0,30.10,NW,315,14.5,18.9,64,0.00,,,0.01,Rainwise IP-100,2013-03-08 22:15:00,
2013-03-08 17:20:00,40.8,29.0,30.10,NNW,337,11.9,19.6,63,0.00,,,0.01,Rainwise IP-100,2013-03-08 22:20:00,
2013-03-08 17:26:00,40.8,29.0,30.10,North,360,11.4,17.5,63,0.00,,,0.01,Rainwise IP-100,2013-03-08 22:26:00,
2013-03-08 17:31:00,40.8,29.0,30.11,NNW,337,10.7,15.4,62,0.00,,,0.01,Rainwise IP-100,2013-03-08 22:31:00,
2013-03-08 17:36:00,40.8,29.0,30.11,North,360,9.3,19.8,62,0.00,,,0.01,Rainwise IP-100,2013-03-08 22:36:00,
2013-03-08 17:41:00,40.8,29.0,30.11,North,360,12.8,18.4,62,0.00,,,0.01,Rainwise IP-100,2013-03-08 22:41:00,
2013-03-08 17:46:00,40.8,29.0,30.11,NNW,337,11.2,21.9,61,0.00,,,0.01,Rainwise IP-100,2013-03-08 22:46:00,
2013-03-08 17:51:00,40.8,29.0,30.11,NNW,337,17.3,20.1,61,0.00,,,0.01,Rainwise IP-100,2013-03-08 22:51:00,
2013-03-08 17:56:00,40.7,29.0,30.11,NNW,337,13.5,22.4,61,0.00,,,0.01,Rainwise IP-100,2013-03-08 22:56:00,
2013-03-08 18:02:00,40.6,29.0,30.12,NNW,337,22.2,25.6,61,0.00,,,0.01,Rainwise IP-100,2013-03-08 23:02:00,
2013-03-08 18:07:00,40.6,29.0,30.12,NNW,337,10.3,25.2,60,0.00,,,0.01,Rainwise IP-100,2013-03-08 23:07:00,
2013-03-08 18:12:00,40.5,29.0,30.13,NNW,337,15.4,18.0,60,0.00,,,0.01,Rainwise IP-100,2013-03-08 23:12:00,
2013-03-08 18:17:00,40.5,29.0,30.13,NNW,337,12.6,23.1,60,0.00,,,0.01,Rainwise IP-100,2013-03-08 23:17:00,
2013-03-08 18:22:00,40.7,29.0,30.13,NNW,337,17.3,26.1,60,0.00,,,0.01,Rainwise IP-100,2013-03-08 23:22:00,
2013-03-08 18:27:00,40.9,28.0,30.14,NNW,337,9.6,22.4,59,0.00,,,0.01,Rainwise IP-100,2013-03-08 23:27:00,
2013-03-08 18:32:00,41.0,28.0,30.13,NNW,337,15.2,22.6,58,0.00,,,0.01,Rainwise IP-100,2013-03-08 23:32:00,
2013-03-08 18:37:00,41.0,28.0,30.13,NNW,337,18.0,26.6,58,0.00,,,0.01,Rainwise IP-100,2013-03-08 23:37:00,
2013-03-08 18:43:00,41.1,28.0,30.14,NNW,337,9.8,24.5,57,0.00,,,0.01,Rainwise IP-100,2013-03-08 23:43:00,
2013-03-08 18:48:00,41.1,28.0,30.14,NNW,337,12.1,21.5,57,0.00,,,0.01,Rainwise IP-100,2013-03-08 23:48:00,
2013-03-08 18:53:00,41.0,28.0,30.14,NNW,337,9.3,20.5,57,0.00,,,0.01,Rainwise IP-100,2013-03-08 23:53:00,
2013-03-08 18:58:00,40.9,28.0,30.14,NNW,337,11.2,22.2,58,0.00,,,0.01,Rainwise IP-100,2013-03-08 23:58:00,
2013-03-08 19:03:00,40.9,28.0,30.15,NNW,337,16.3,18.9,58,0.00,,,0.01,Rainwise IP-100,2013-03-09 00:03:00,
2013-03-08 19:08:00,41.0,28.0,30.15,NNW,337,12.8,28.7,57,0.00,,,0.01,Rainwise IP-100,2013-03-09 00:08:00,
2013-03-08 19:13:00,41.1,28.0,30.15,NNW,337,12.4,23.6,57,0.00,,,0.01,Rainwise IP-100,2013-03-09 00:13:00,
2013-03-08 19:19:00,41.0,28.0,30.15,NNW,337,11.4,26.6,57,0.00,,,0.01,Rainwise IP-100,2013-03-09 00:19:00,
2013-03-08 19:24:00,41.1,28.0,30.16,NNW,337,10.3,24.7,57,0.00,,,0.01,Rainwise IP-100,2013-03-09 00:24:00,
2013-03-08 19:29:00,41.2,28.0,30.16,NNW,337,13.5,27.3,56,0.00,,,0.01,Rainwise IP-100,2013-03-09 00:29:00,
2013-03-08 19:34:00,41.3,28.0,30.15,NNW,337,22.2,25.9,56,0.00,,,0.01,Rainwise IP-100,2013-03-09 00:34:00,
2013-03-08 19:39:00,41.3,28.0,30.16,NNW,337,9.1,26.3,56,0.00,,,0.01,Rainwise IP-100,2013-03-09 00:39:00,
2013-03-08 19:44:00,41.5,28.0,30.16,NNW,337,12.4,28.2,55,0.00,,,0.01,Rainwise IP-100,2013-03-09 00:44:00,
2013-03-08 19:49:00,41.5,28.0,30.16,NNW,337,14.2,24.7,55,0.00,,,0.01,Rainwise IP-100,2013-03-09 00:49:00,
2013-03-08 19:54:00,41.5,28.0,30.17,NNW,337,15.6,25.4,54,0.00,,,0.01,Rainwise IP-100,2013-03-09 00:54:00,
2013-03-08 20:00:00,41.5,28.0,30.16,NNW,337,17.3,22.9,54,0.00,,,0.01,Rainwise IP-100,2013-03-09 01:00:00,
2013-03-08 20:05:00,41.5,28.0,30.17,NNE,22,9.3,20.8,54,0.00,,,0.01,Rainwise IP-100,2013-03-09 01:05:00,
2013-03-08 20:10:00,41.5,28.0,30.16,North,360,10.5,20.1,54,0.00,,,0.01,Rainwise IP-100,2013-03-09 01:10:00,
2013-03-08 20:15:00,41.5,28.0,30.16,NNW,337,10.7,21.9,54,0.00,,,0.01,Rainwise IP-100,2013-03-09 01:15:00,
2013-03-08 20:20:00,41.6,28.0,30.17,NNW,337,14.5,22.4,54,0.00,,,0.01,Rainwise IP-100,2013-03-09 01:20:00,
2013-03-08 20:25:00,41.5,28.0,30.17,NNW,337,15.4,21.5,54,0.00,,,0.01,Rainwise IP-100,2013-03-09 01:25:00,
2013-03-08 20:30:00,41.6,28.0,30.18,NNW,337,17.7,25.2,54,0.00,,,0.01,Rainwise IP-100,2013-03-09 01:30:00,
2013-03-08 20:36:00,41.6,28.0,30.17,NNW,337,18.0,24.9,54,0.00,,,0.01,Rainwise IP-100,2013-03-09 01:36:00,
2013-03-08 20:41:00,41.6,28.0,30.17,NNW,337,18.0,23.6,54,0.00,,,0.01,Rainwise IP-100,2013-03-09 01:41:00,
2013-03-08 20:46:00,41.7,26.0,30.18,NNW,337,8.9,21.5,53,0.00,,,0.01,Rainwise IP-100,2013-03-09 01:46:00,
2013-03-08 20:51:00,41.6,26.0,30.18,NNW,337,10.3,20.5,53,0.00,,,0.01,Rainwise IP-100,2013-03-09 01:51:00,
2013-03-08 20:56:00,41.5,26.0,30.18,NNW,337,12.6,16.6,53,0.00,,,0.01,Rainwise IP-100,2013-03-09 01:56:00,
2013-03-08 21:01:00,41.4,26.0,30.18,NNW,337,10.0,21.2,53,0.00,,,0.01,Rainwise IP-100,2013-03-09 02:01:00,
2013-03-08 21:06:00,41.3,26.0,30.19,North,360,6.1,17.7,54,0.00,,,0.01,Rainwise IP-100,2013-03-09 02:06:00,
2013-03-08 21:11:00,41.2,26.0,30.19,NNW,337,15.2,17.5,54,0.00,,,0.01,Rainwise IP-100,2013-03-09 02:11:00,
2013-03-08 21:17:00,41.1,26.0,30.19,NNW,337,11.9,19.1,54,0.00,,,0.01,Rainwise IP-100,2013-03-09 02:17:00,
2013-03-08 21:22:00,41.0,26.0,30.18,NNW,337,18.2,20.5,54,0.00,,,0.01,Rainwise IP-100,2013-03-09 02:22:00,
2013-03-08 21:27:00,41.0,26.0,30.18,NNW,337,17.3,19.8,54,0.00,,,0.01,Rainwise IP-100,2013-03-09 02:27:00,
2013-03-08 21:32:00,41.0,26.0,30.19,NW,315,11.4,23.6,54,0.00,,,0.01,Rainwise IP-100,2013-03-09 02:32:00,
2013-03-08 21:37:00,40.9,26.0,30.18,NNW,337,16.1,23.8,54,0.00,,,0.01,Rainwise IP-100,2013-03-09 02:37:00,
2013-03-08 21:42:00,40.9,26.0,30.18,NNW,337,17.5,23.1,55,0.00,,,0.01,Rainwise IP-100,2013-03-09 02:42:00,
2013-03-08 21:47:00,40.9,26.0,30.18,NW,315,21.0,23.3,55,0.00,,,0.01,Rainwise IP-100,2013-03-09 02:47:00,
2013-03-08 21:53:00,40.9,26.0,30.19,NNW,337,21.7,21.7,55,0.00,,,0.01,Rainwise IP-100,2013-03-09 02:53:00,
2013-03-08 21:58:00,40.8,26.0,30.19,NNW,337,14.9,23.1,55,0.00,,,0.01,Rainwise IP-100,2013-03-09 02:58:00,
2013-03-08 22:03:00,40.8,26.0,30.19,NNW,337,19.8,23.8,55,0.00,,,0.01,Rainwise IP-100,2013-03-09 03:03:00,
2013-03-08 22:08:00,40.9,26.0,30.18,NNW,337,21.9,30.1,55,0.00,,,0.01,Rainwise IP-100,2013-03-09 03:08:00,
2013-03-08 22:13:00,40.9,26.0,30.18,NNW,337,15.9,29.6,55,0.00,,,0.01,Rainwise IP-100,2013-03-09 03:13:00,
2013-03-08 22:18:00,40.8,26.0,30.19,NNW,337,14.9,27.5,55,0.00,,,0.01,Rainwise IP-100,2013-03-09 03:18:00,
2013-03-08 22:23:00,40.7,26.0,30.19,NNW,337,7.9,25.4,55,0.00,,,0.01,Rainwise IP-100,2013-03-09 03:23:00,
2013-03-08 22:28:00,40.5,26.0,30.19,NNW,337,13.8,19.4,55,0.00,,,0.01,Rainwise IP-100,2013-03-09 03:28:00,
2013-03-08 22:34:00,40.4,26.0,30.19,North,360,11.0,22.2,56,0.00,,,0.01,Rainwise IP-100,2013-03-09 03:34:00,
2013-03-08 22:39:00,40.3,26.0,30.19,NNW,337,12.4,24.5,56,0.00,,,0.01,Rainwise IP-100,2013-03-09 03:39:00,
2013-03-08 22:44:00,40.3,26.0,30.18,NNW,337,14.9,22.4,56,0.00,,,0.01,Rainwise IP-100,2013-03-09 03:44:00,
2013-03-08 22:49:00,40.1,26.0,30.19,NNW,337,18.7,23.1,56,0.00,,,0.01,Rainwise IP-100,2013-03-09 03:49:00,
2013-03-08 22:54:00,40.1,26.0,30.19,NNW,337,16.8,22.2,56,0.00,,,0.01,Rainwise IP-100,2013-03-09 03:54:00,
2013-03-08 22:59:00,39.9,26.0,30.19,NNW,337,12.4,21.9,56,0.00,,,0.01,Rainwise IP-100,2013-03-09 03:59:00,
2013-03-08 23:04:00,39.8,26.0,30.18,NNW,337,15.2,25.4,56,0.00,,,0.01,Rainwise IP-100,2013-03-09 04:04:00,
2013-03-08 23:10:00,39.7,26.0,30.18,NNW,337,10.0,21.9,56,0.00,,,0.01,Rainwise IP-100,2013-03-09 04:10:00,
2013-03-08 23:15:00,39.7,26.0,30.18,NNW,337,18.7,25.2,57,0.00,,,0.01,Rainwise IP-100,2013-03-09 04:15:00,
2013-03-08 23:20:00,39.6,26.0,30.17,NNW,337,19.4,27.5,56,0.00,,,0.01,Rainwise IP-100,2013-03-09 04:20:00,
2013-03-08 23:25:00,39.6,26.0,30.18,NNW,337,22.9,27.7,56,0.00,,,0.01,Rainwise IP-100,2013-03-09 04:25:00,
2013-03-08 23:30:00,39.6,26.0,30.18,North,360,15.4,28.4,56,0.00,,,0.01,Rainwise IP-100,2013-03-09 04:30:00,
2013-03-08 23:35:00,39.5,26.0,30.18,NNW,337,18.0,24.7,56,0.00,,,0.01,Rainwise IP-100,2013-03-09 04:35:00,
2013-03-08 23:40:00,39.3,24.0,30.18,NW,315,21.7,21.7,56,0.00,,,0.01,Rainwise IP-100,2013-03-09 04:40:00,
2013-03-08 23:45:00,39.2,24.0,30.17,NNW,337,20.3,23.1,56,0.00,,,0.01,Rainwise IP-100,2013-03-09 04:45:00,
2013-03-08 23:51:00,39.2,24.0,30.18,NNW,337,15.2,24.9,56,0.00,,,0.01,Rainwise IP-100,2013-03-09 04:51:00,
2013-03-08 23:56:00,39.1,24.0,30.19,NNW,337,14.2,23.6,56,0.00,,,0.01,Rainwise IP-100,2013-03-09 04:56:00,